[[{"header":{"parameterUnit":"m.s-1","parameterCategory":2,"la1":30.2991,"la2":30.254,"lo1":-89.0895,"lo2":-89.0444,"dy":0.0017,"dx":0.0017,"nx":28,"ny":28,"refTime":"2025-07-12T21:00:00:Z","depth":"0","parameterNumber":2,"parameterNumberName":"U-component_of_CURRENTS"},"data":[0,0,0,0,0,0,0,0,0,0,0,0,0,0,0,0,0,0,0,0,0,0,0,0,0,0,0,0,0,0,0,0,0,0,0,0,0,0,0,0,0,0,0,0,0,0,0,0,0,0,0,0,0,0,0,0,0,0,-0.3556,-0.3556,0,-0.3527,-0.3526,-0.3526,-0.3463,-0.3462,-0.3461,-0.346,-0.3434,-0.3434,-0.3435,0,0,0,0,0,0,0,0,0,0,0,0,0,-0.3534,-0.3535,-0.3556,-0.3556,-0.3555,-0.3527,-0.3526,-0.3526,-0.3463,-0.3462,-0.3461,-0.3459,-0.3434,-0.3434,-0.3435,0,0,0,0,0,0,0,0,0,0,0,0,0,-0.3526,-0.3535,-0.3556,-0.3522,-0.3519,-0.3527,-0.3526,-0.3526,-0.3463,-0.3462,-0.346,-0.3459,-0.3434,-0.3434,-0.3435,-0.347,0,0,-0.3436,-0.3436,0,0,0,0,0,0,0,0,-0.3527,-0.3527,-0.3527,-0.3525,-0.3521,-0.3499,-0.3509,-0.3508,-0.3464,-0.3482,-0.346,-0.3458,-0.3459,-0.3457,-0.3452,-0.3469,-0.3468,-0.3436,-0.3436,-0.3437,-0.3437,0,0,0,0,0,0,0,-0.3527,-0.3527,-0.3542,-0.3527,-0.3524,-0.3501,-0.3498,-0.3508,-0.3478,-0.3481,-0.3477,-0.3477,-0.3456,-0.3452,-0.3451,-0.3467,-0.3436,-0.3437,-0.3437,-0.3437,-0.3299,-0.3295,0,0,0,0,0,0,-0.3538,-0.3528,-0.3543,-0.3541,-0.3522,-0.3503,-0.35,-0.3506,-0.3478,-0.3473,-0.3479,-0.3474,-0.3452,-0.345,-0.345,-0.3377,-0.3437,-0.3437,-0.3437,-0.3303,-0.3298,-0.3294,0,0,0,0,0,0,-0.3538,-0.354,-0.3544,-0.3535,-0.3534,-0.3506,-0.3513,-0.3506,-0.3496,-0.3477,-0.3471,-0.3475,-0.345,-0.3449,-0.3425,-0.338,-0.3437,-0.3438,-0.3307,-0.3301,-0.3296,-0.3305,0,0,0,0,0,0,-0.3538,-0.3541,-0.3548,-0.3537,-0.3535,-0.3547,-0.3514,-0.3507,-0.3501,-0.3495,-0.3473,-0.3468,-0.3449,-0.3424,-0.3425,-0.3382,-0.3438,-0.3312,-0.3305,-0.3298,-0.331,-0.3301,-0.3292,0,0,0,0,0,-0.3537,-0.3567,-0.3548,-0.355,-0.3547,-0.3547,-0.3545,-0.3517,-0.3502,-0.3501,-0.3463,-0.3469,-0.3375,-0.3424,-0.3425,-0.3381,-0.3316,-0.3307,-0.3298,-0.3314,-0.3303,-0.3293,0,0,0,0,0,0,-0.3568,-0.3563,-0.3542,-0.3569,-0.3553,-0.3537,-0.3544,-0.3525,-0.3497,-0.3492,-0.3462,-0.3455,-0.3397,-0.3387,-0.3441,-0.3304,-0.333,-0.3321,-0.334,-0.333,-0.3321,-0.3321,-0.3439,0,0,0,0,0,-0.3577,-0.359,-0.3575,-0.3592,-0.3591,-0.3567,-0.3564,-0.3547,-0.3524,-0.3511,-0.3489,-0.3435,-0.3364,-0.335,-0.3302,-0.3278,-0.3209,-0.3227,-0.3218,-0.3212,-0.3203,-0.3068,-0.3048,-0.3264,-0.3264,-0.3265,0,0,-0.3593,-0.3592,-0.3599,-0.3598,-0.3587,-0.3584,-0.3561,-0.3567,-0.3542,-0.3517,-0.3483,-0.3422,-0.3345,-0.3278,-0.325,-0.3272,-0.3102,-0.32,-0.3196,-0.3191,-0.3057,-0.3037,-0.3018,-0.3258,-0.3259,-0.326,0,0,-0.3633,-0.3632,-0.365,-0.3642,-0.3633,-0.3612,-0.3615,-0.3597,-0.3563,-0.3531,-0.3461,-0.3378,-0.3328,-0.3236,-0.3185,-0.3104,-0.3055,-0.3073,-0.3051,-0.2921,-0.2903,-0.2887,-0.2741,-0.2712,-0.3077,-0.3077,-0.3077,0,-0.3652,-0.3654,-0.3655,-0.3667,-0.3642,-0.3624,-0.3614,-0.3595,-0.3563,-0.3501,-0.3517,-0.3324,-0.3293,-0.3137,-0.3099,-0.3089,-0.3,-0.3115,-0.2914,-0.2897,-0.288,-0.2734,-0.2702,-0.3077,-0.3077,-0.3077,-0.3077,0,-0.3692,-0.3686,-0.3701,-0.3688,-0.3674,-0.3666,-0.3632,-0.3598,-0.3555,-0.3501,-0.3356,-0.3289,-0.3163,-0.312,-0.3101,-0.2935,-0.2903,-0.292,-0.296,-0.286,-0.2711,-0.2677,-0.3076,-0.3076,-0.3076,-0.3076,0,0,-0.3729,-0.3724,-0.3721,-0.3683,-0.3668,-0.3648,-0.3607,-0.3515,-0.3439,-0.3391,-0.3259,-0.3137,-0.3089,-0.3023,-0.2962,-0.286,-0.2677,-0.2852,-0.2846,-0.2739,-0.2358,-0.215,-0.2093,-0.2666,-0.2661,-0.2656,-0.2293,0,-0.3733,-0.3727,-0.3725,-0.3681,-0.365,-0.3604,-0.3555,-0.3477,-0.3394,-0.3283,-0.3162,-0.3037,-0.3055,-0.2978,-0.2883,-0.2727,-0.2592,-0.2772,-0.2443,-0.2432,-0.2286,-0.2048,-0.1779,-0.1415,-0.226,-0.2254,-0.225,0,-0.3747,-0.372,-0.3686,-0.3602,-0.3586,-0.3573,-0.3424,-0.3384,-0.3238,-0.3168,-0.3037,-0.2952,-0.2781,-0.2824,-0.2521,-0.2635,-0.2492,-0.238,-0.2364,-0.2145,-0.2159,-0.1651,-0.1322,-0.1371,-0.2198,-0.2202,-0.2206,0,-0.3702,-0.3675,-0.3622,-0.3606,-0.3541,-0.3494,-0.3455,-0.3334,-0.32,-0.3093,-0.2948,-0.2813,-0.2646,-0.2514,-0.2304,-0.24,-0.1948,-0.2055,-0.1711,-0.1696,-0.1384,-0.1349,-0.1085,-0.1798,-0.1799,-0.18,-0.1801,0,-0.3665,-0.3616,-0.3604,-0.3568,-0.3457,-0.3467,-0.3307,-0.3266,-0.3107,-0.2841,-0.289,-0.2594,-0.2551,-0.2289,-0.2209,-0.1804,-0.1858,-0.1622,-0.1553,-0.1372,-0.1342,-0.131,-0.1465,-0.1786,-0.1789,-0.1792,-0.1794,0,-0.3593,-0.3602,-0.3523,-0.3468,-0.343,-0.3362,-0.3176,-0.3002,-0.2966,-0.2616,-0.2551,-0.2343,-0.1989,-0.1905,-0.1605,-0.156,-0.1253,-0.1148,-0.0931,-0.0841,-0.0618,-0.0783,-0.0561,-0.0572,-0.0714,-0.0706,-0.0699,0,-0.3539,-0.3504,-0.3425,-0.3282,-0.3242,-0.3117,-0.2942,-0.2914,-0.2701,-0.2338,-0.2109,-0.1754,-0.1331,-0.092,-0.0781,-0.0554,-0.0787,-0.0261,-0.04,-0.0472,-0.0609,-0.0881,-0.0934,0.0019,0.0031,0.004,0.0048,0,-0.3352,-0.3356,-0.324,-0.2983,-0.2809,-0.2594,-0.2394,-0.2228,-0.2058,-0.1801,-0.1284,-0.0945,-0.0501,-0.0078,0.009,0.0185,-0.03,-0.0048,-0.0152,0.0004,-0.024,-0.026,-0.0398,0.0136,0.0127,0.012,0.0116,0.0112,-0.3132,-0.3,-0.2793,-0.253,-0.2318,-0.1978,-0.1747,-0.1524,-0.1167,-0.0746,-0.0585,-0.0141,0.0302,0.0656,0.0694,0.0796,0.0479,0.0773,0.0591,0.0328,0.0291,0.0357,0.0957,0.0953,0.095,0.0947,0.0944,0,-0.2712,-0.2532,-0.2273,-0.1918,-0.1565,-0.1588,-0.1236,-0.0993,-0.054,-0.0289,0.01,0.059,0.1104,0.122,0.1506,0.1431,0.1146,0.1277,0.0939,0.086,0.1003,0.1009,0.1686,0.1686,0.1686,0.1686,0.1686,0.1686,-0.2424,-0.2021,-0.1893,-0.1203,-0.0984,-0.0521,-0.0309,-0.0077,0.0079,0.0493,0.0644,0.0733,0.1015,0.1582,0.1746,0.1668,0.1227,0.1263,0.0939,0.1023,0.0957,0.0893,0.0869,0.1506,0.1505,0.0889,0.0884,0.0881]},{"header":{"parameterUnit":"m.s-1","parameterCategory":2,"la1":30.2991,"la2":30.254,"lo1":-89.0895,"lo2":-89.0444,"dy":0.0017,"dx":0.0017,"nx":28,"ny":28,"refTime":"2025-07-12T21:00:00:Z","depth":"0","parameterNumber":3,"parameterNumberName":"V-component_of_CURRENTS"},"data":[0,0,0,0,0,0,0,0,0,0,0,0,0,0,0,0,0,0,0,0,0,0,0,0,0,0,0,0,0,0,0,0,0,0,0,0,0,0,0,0,0,0,0,0,0,0,0,0,0,0,0,0,0,0,0,0,0,0,-0.0586,-0.0585,0,-0.0495,-0.0494,-0.0493,-0.0413,-0.0412,-0.0411,-0.041,-0.0223,-0.0219,-0.0214,0,0,0,0,0,0,0,0,0,0,0,0,0,-0.0653,-0.0653,-0.0586,-0.0585,-0.0584,-0.0496,-0.0494,-0.0493,-0.0413,-0.0412,-0.0411,-0.041,-0.0224,-0.0219,-0.0214,0,0,0,0,0,0,0,0,0,0,0,0,0,-0.0598,-0.0652,-0.0586,-0.0535,-0.0529,-0.0496,-0.0494,-0.0492,-0.0413,-0.0412,-0.0411,-0.041,-0.0226,-0.022,-0.0213,-0.0197,0,0,-0.0194,-0.0191,0,0,0,0,0,0,0,0,-0.0601,-0.0595,-0.0543,-0.0538,-0.0532,-0.0466,-0.0449,-0.0389,-0.0413,-0.0455,-0.041,-0.0409,-0.0297,-0.0285,-0.0269,-0.0188,-0.018,-0.0193,-0.0189,-0.0186,-0.0185,0,0,0,0,0,0,0,-0.0605,-0.0599,-0.0548,-0.0542,-0.0536,-0.0504,-0.0495,-0.0438,-0.038,-0.0451,-0.0446,-0.0439,-0.0293,-0.0276,-0.0264,-0.0177,-0.0193,-0.0188,-0.0184,-0.0181,0.0063,0.0066,0,0,0,0,0,0,-0.0623,-0.0603,-0.0551,-0.0545,-0.0567,-0.0504,-0.0494,-0.0487,-0.0383,-0.0367,-0.044,-0.0436,-0.0287,-0.0271,-0.0257,-0.0167,-0.0187,-0.0181,-0.0177,0.0061,0.0064,0.0067,0,0,0,0,0,0,-0.0625,-0.062,-0.0555,-0.0573,-0.0563,-0.0505,-0.0497,-0.0486,-0.0462,-0.0376,-0.0358,-0.0428,-0.0286,-0.0266,-0.0197,-0.0162,-0.0178,-0.0172,0.0058,0.0062,0.0065,-0.0029,0,0,0,0,0,0,-0.0627,-0.0621,-0.0623,-0.0575,-0.0563,-0.0529,-0.0498,-0.0485,-0.0461,-0.0454,-0.036,-0.0342,-0.0283,-0.0207,-0.019,-0.0153,-0.0167,0.0054,0.0059,0.0064,-0.0029,-0.0028,-0.0028,0,0,0,0,0,-0.063,-0.0631,-0.0623,-0.0617,-0.0567,-0.0529,-0.0519,-0.0473,-0.0462,-0.0449,-0.0386,-0.0344,-0.0161,-0.0201,-0.0182,-0.0142,0.0052,0.0058,0.0064,-0.0029,-0.0029,-0.0028,0,0,0,0,0,0,-0.0661,-0.0622,-0.0612,-0.0602,-0.0569,-0.0516,-0.0502,-0.048,-0.0424,-0.0414,-0.0338,-0.0315,-0.0229,-0.0171,-0.0217,-0.0047,-0.0036,-0.0026,-0.0112,-0.0111,-0.0111,-0.0149,-0.0161,0,0,0,0,0,-0.0674,-0.0661,-0.0622,-0.0614,-0.0601,-0.0558,-0.0539,-0.0509,-0.0457,-0.0432,-0.0369,-0.0281,-0.0191,-0.0146,-0.0062,0.0004,0.004,0.0058,0.0058,0.0058,0.0046,0.0098,0.0099,0.0086,0.0086,0.0086,0,0,-0.0685,-0.0662,-0.0655,-0.062,-0.0592,-0.0571,-0.0542,-0.0513,-0.0487,-0.0419,-0.0362,-0.0286,-0.0171,-0.0085,-0.0038,-0.0035,0.009,0.0065,0.0063,0.0052,0.0104,0.0104,0.0104,0.009,0.009,0.0089,0,0,-0.0695,-0.0681,-0.0672,-0.0649,-0.0613,-0.0582,-0.0579,-0.0529,-0.0494,-0.0441,-0.0366,-0.0287,-0.0164,-0.0079,-0.0017,0.0036,0.0088,0.009,0.0055,0.0105,0.0104,0.0104,0.0168,0.0174,0.009,0.009,0.009,0,-0.0711,-0.0697,-0.0664,-0.065,-0.0636,-0.0592,-0.0582,-0.054,-0.0473,-0.0443,-0.0425,-0.0244,-0.0159,-0.0045,-0.0017,0.0033,0.0069,0.0029,0.0097,0.0098,0.0099,0.0164,0.0172,0.0086,0.0086,0.0087,0.0087,0,-0.0707,-0.0704,-0.0698,-0.0667,-0.0644,-0.063,-0.0577,-0.0545,-0.0508,-0.0462,-0.0361,-0.026,-0.0155,-0.0095,-0.0042,0.0037,0.0064,0.008,0.0071,0.0093,0.0163,0.0173,0.008,0.0082,0.0083,0.0084,0,0,-0.0724,-0.0702,-0.07,-0.0694,-0.0657,-0.0632,-0.0596,-0.0542,-0.0499,-0.0439,-0.0383,-0.0242,-0.0206,-0.0132,-0.0049,-0.0001,0.0049,0.0034,0.0039,0.0055,0.0164,0.0221,0.0237,0.006,0.0061,0.0062,0.0212,0,-0.0734,-0.0729,-0.0708,-0.0695,-0.0689,-0.0647,-0.0606,-0.055,-0.049,-0.0422,-0.0334,-0.0232,-0.021,-0.0145,-0.011,0.0026,0.0068,0.0007,0.0179,0.0184,0.0195,0.0248,0.0366,0.0512,0.0222,0.0223,0.0224,0,-0.0736,-0.0733,-0.0738,-0.0707,-0.0696,-0.0675,-0.0606,-0.0559,-0.0463,-0.0411,-0.0347,-0.027,-0.0171,-0.0159,-0.0002,-0.0047,0.004,0.0124,0.0132,0.0218,0.0258,0.0448,0.0541,0.0474,0.024,0.0239,0.0238,0,-0.0763,-0.0748,-0.0757,-0.0751,-0.0707,-0.0688,-0.0647,-0.056,-0.0453,-0.04,-0.0286,-0.0253,-0.0121,-0.0085,0.0071,0.0036,0.0247,0.0226,0.0354,0.036,0.0514,0.0531,0.0525,0.0316,0.0316,0.0315,0.0315,0,-0.0787,-0.0786,-0.0768,-0.0772,-0.0713,-0.0703,-0.0593,-0.0558,-0.0431,-0.0225,-0.027,-0.0056,-0.0089,0.0042,0.0079,0.0262,0.0251,0.0359,0.0403,0.0491,0.0503,0.0494,0.0433,0.0321,0.032,0.0319,0.0318,0,-0.0813,-0.0814,-0.0796,-0.0763,-0.0724,-0.0681,-0.0492,-0.0365,-0.0308,-0.004,0.0003,0.0132,0.0287,0.026,0.0382,0.0374,0.0499,0.0538,0.0641,0.0692,0.0696,0.0628,0.0712,0.0782,0.0676,0.0679,0.0681,0,-0.0826,-0.0837,-0.0766,-0.0666,-0.0638,-0.0531,-0.0377,-0.03,-0.0118,0.018,0.0358,0.0511,0.0767,0.0862,0.0763,0.0754,0.0697,0.0859,0.0798,0.0719,0.0676,0.0619,0.0667,0.0985,0.0989,0.0992,0.0995,0,-0.0822,-0.0803,-0.075,-0.0541,-0.0385,-0.0208,-0.0009,0.015,0.0345,0.0604,0.1022,0.1225,0.1272,0.1327,0.1156,0.1135,0.085,0.0932,0.084,0.0904,0.0858,0.0941,0.0853,0.1026,0.1023,0.1021,0.1019,0.1018,-0.0755,-0.0676,-0.0535,-0.0304,-0.0124,0.0154,0.0376,0.0614,0.0964,0.1408,0.157,0.1962,0.1852,0.1648,0.1478,0.1181,0.1144,0.1163,0.1089,0.1039,0.1087,0.1056,0.127,0.1268,0.1267,0.1266,0.1265,0,-0.0549,-0.0423,-0.0247,0.0067,0.0357,0.0374,0.0711,0.097,0.1445,0.1789,0.2212,0.2566,0.2365,0.2012,0.1573,0.1383,0.1296,0.1268,0.1203,0.1251,0.124,0.1229,0.1457,0.1457,0.1457,0.1457,0.1457,0.1457,-0.0402,-0.0138,-0.0011,0.0522,0.0726,0.1141,0.1356,0.1639,0.1893,0.2489,0.2847,0.3092,0.2834,0.1956,0.1422,0.1349,0.1273,0.1239,0.1172,0.1104,0.1086,0.107,0.1043,0.1228,0.1228,0.128,0.128,0.128]}],[{"header":{"parameterUnit":"m.s-1","parameterCategory":2,"la1":30.2991,"la2":30.254,"lo1":-89.0895,"lo2":-89.0444,"dy":0.0017,"dx":0.0017,"nx":28,"ny":28,"refTime":"2025-07-12T21:00:00:Z","depth":"2","parameterNumber":2,"parameterNumberName":"U-component_of_CURRENTS"},"data":[0,0,0,0,0,0,0,0,0,0,0,0,0,0,0,0,0,0,0,0,0,0,0,0,0,0,0,0,0,0,0,0,0,0,0,0,0,0,0,0,0,0,0,0,0,0,0,0,0,0,0,0,0,0,0,0,0,0,-0.1171,-0.1173,0,-0.1244,-0.1245,-0.1245,-0.1318,-0.1319,-0.1321,-0.1322,-0.1474,-0.1477,-0.1479,0,0,0,0,0,0,0,0,0,0,0,0,0,-0.1132,-0.1132,-0.1171,-0.1173,-0.1174,-0.1244,-0.1245,-0.1245,-0.1318,-0.1319,-0.1321,-0.1323,-0.1473,-0.1476,-0.1479,0,0,0,0,0,0,0,0,0,0,0,0,0,-0.1166,-0.1132,-0.1171,-0.1223,-0.1229,-0.1244,-0.1245,-0.1245,-0.1317,-0.1319,-0.1322,-0.1324,-0.1472,-0.1476,-0.148,-0.1459,0,0,-0.1492,-0.1494,0,0,0,0,0,0,0,0,-0.1164,-0.1166,-0.1214,-0.122,-0.1226,-0.128,-0.1287,-0.1323,-0.1317,-0.1277,-0.1322,-0.1325,-0.1418,-0.1427,-0.1426,-0.1466,-0.1473,-0.1492,-0.1495,-0.1496,-0.1497,0,0,0,0,0,0,0,-0.1161,-0.1164,-0.1194,-0.1216,-0.1223,-0.1256,-0.1262,-0.1293,-0.1331,-0.1281,-0.1288,-0.1305,-0.1422,-0.1422,-0.1431,-0.1475,-0.1492,-0.1496,-0.1498,-0.15,-0.1524,-0.1522,0,0,0,0,0,0,-0.1159,-0.1161,-0.1192,-0.1197,-0.1207,-0.1255,-0.1262,-0.1255,-0.133,-0.1344,-0.1303,-0.1308,-0.1414,-0.1426,-0.1436,-0.1453,-0.1496,-0.15,-0.1502,-0.1525,-0.1523,-0.1522,0,0,0,0,0,0,-0.1158,-0.116,-0.1189,-0.1187,-0.1194,-0.1254,-0.1246,-0.1256,-0.1288,-0.1346,-0.1362,-0.133,-0.1416,-0.1431,-0.1482,-0.1458,-0.1502,-0.1505,-0.1528,-0.1525,-0.1522,-0.1463,0,0,0,0,0,0,-0.1155,-0.1158,-0.1156,-0.1186,-0.1194,-0.1193,-0.1244,-0.1256,-0.1296,-0.1304,-0.1374,-0.1388,-0.1419,-0.1475,-0.1486,-0.1465,-0.1508,-0.153,-0.1526,-0.1523,-0.1467,-0.1458,-0.1451,0,0,0,0,0,-0.1153,-0.1135,-0.1154,-0.1159,-0.1186,-0.1192,-0.1198,-0.1246,-0.1295,-0.1288,-0.1352,-0.1388,-0.1461,-0.1478,-0.149,-0.147,-0.1531,-0.1527,-0.1524,-0.147,-0.146,-0.1451,0,0,0,0,0,0,-0.1118,-0.1142,-0.1164,-0.1155,-0.1173,-0.1207,-0.1213,-0.1255,-0.1296,-0.1319,-0.1385,-0.1402,-0.1422,-0.1455,-0.1473,-0.1461,-0.1493,-0.1492,-0.1449,-0.1439,-0.1432,-0.1466,-0.1512,0,0,0,0,0,-0.1107,-0.11,-0.1129,-0.1123,-0.1131,-0.1178,-0.1194,-0.1224,-0.1267,-0.1289,-0.1338,-0.1383,-0.1405,-0.1437,-0.1449,-0.1468,-0.1487,-0.1453,-0.1445,-0.1439,-0.1471,-0.1473,-0.1469,-0.1509,-0.1509,-0.1509,0,0,-0.1095,-0.1108,-0.1106,-0.1116,-0.1137,-0.1159,-0.1191,-0.1207,-0.1239,-0.1298,-0.1348,-0.1357,-0.14,-0.1402,-0.1414,-0.1441,-0.1425,-0.1434,-0.1428,-0.1466,-0.1469,-0.1465,-0.1462,-0.1506,-0.1507,-0.1507,0,0,-0.1078,-0.1073,-0.1075,-0.1088,-0.1119,-0.1142,-0.1154,-0.1188,-0.1211,-0.1247,-0.1286,-0.1298,-0.1344,-0.1361,-0.1382,-0.1344,-0.1372,-0.1328,-0.1338,-0.1337,-0.1335,-0.1334,-0.1306,-0.1303,-0.1338,-0.1338,-0.1338,0,-0.1067,-0.1079,-0.1075,-0.1091,-0.1119,-0.1143,-0.1171,-0.1183,-0.1233,-0.1253,-0.1258,-0.1302,-0.1327,-0.1354,-0.1332,-0.133,-0.1328,-0.1374,-0.133,-0.1329,-0.1329,-0.1301,-0.1299,-0.1335,-0.1335,-0.1335,-0.1336,0,-0.1068,-0.1086,-0.1084,-0.1119,-0.1134,-0.1147,-0.1177,-0.1189,-0.1221,-0.1242,-0.1253,-0.1263,-0.1303,-0.1277,-0.1306,-0.1301,-0.1295,-0.1308,-0.1361,-0.1322,-0.1294,-0.1292,-0.133,-0.1331,-0.1332,-0.1333,0,0,-0.1033,-0.1078,-0.1084,-0.111,-0.1154,-0.1159,-0.1199,-0.1231,-0.126,-0.1261,-0.1294,-0.129,-0.1287,-0.1309,-0.1309,-0.1308,-0.1271,-0.1312,-0.1314,-0.1297,-0.1249,-0.1112,-0.1098,-0.1277,-0.1277,-0.1277,-0.1214,0,-0.1048,-0.1083,-0.111,-0.1153,-0.1177,-0.1208,-0.1238,-0.1265,-0.1282,-0.13,-0.1295,-0.1305,-0.1302,-0.13,-0.13,-0.1289,-0.1272,-0.1287,-0.1282,-0.1282,-0.1176,-0.1093,-0.1069,-0.1,-0.1212,-0.1212,-0.1212,0,-0.1059,-0.1083,-0.113,-0.1177,-0.1188,-0.121,-0.1257,-0.1285,-0.1313,-0.1322,-0.1338,-0.1336,-0.1341,-0.1325,-0.131,-0.1319,-0.129,-0.1266,-0.1264,-0.1172,-0.1143,-0.1081,-0.0989,-0.121,-0.121,-0.121,-0.121,0,-0.1046,-0.1099,-0.1135,-0.1153,-0.1206,-0.1224,-0.1248,-0.1287,-0.1302,-0.1332,-0.1336,-0.1352,-0.1342,-0.1331,-0.1278,-0.1305,-0.1231,-0.1264,-0.1107,-0.1097,-0.1096,-0.1083,-0.1242,-0.1242,-0.1242,-0.1242,-0.1243,0,-0.1059,-0.1084,-0.1122,-0.1138,-0.1154,-0.1204,-0.1224,-0.125,-0.1289,-0.1297,-0.1336,-0.1328,-0.1344,-0.1303,-0.1275,-0.1159,-0.1227,-0.1096,-0.1069,-0.1063,-0.1049,-0.1269,-0.1273,-0.124,-0.1241,-0.1241,-0.1241,0,-0.1039,-0.1081,-0.1099,-0.1139,-0.1147,-0.1149,-0.1185,-0.1193,-0.1247,-0.1261,-0.1268,-0.1303,-0.1242,-0.1206,-0.1162,-0.1123,-0.1045,-0.0983,-0.0948,-0.0916,-0.0921,-0.0923,-0.0837,-0.0831,-0.0827,-0.0823,-0.082,0,-0.1032,-0.1044,-0.1064,-0.1056,-0.1067,-0.1083,-0.1088,-0.1152,-0.1161,-0.1229,-0.1216,-0.1188,-0.1138,-0.1001,-0.092,-0.081,-0.0875,-0.0718,-0.0763,-0.0896,-0.088,-0.0888,-0.0896,-0.0732,-0.0729,-0.0726,-0.0723,0,-0.0989,-0.0992,-0.0992,-0.098,-0.0976,-0.0983,-0.0996,-0.1002,-0.1082,-0.11,-0.1102,-0.1079,-0.096,-0.083,-0.0669,-0.0619,-0.0739,-0.0648,-0.0811,-0.0814,-0.0786,-0.0773,-0.0787,-0.0696,-0.0699,-0.0701,-0.0703,-0.0704,-0.0924,-0.0896,-0.089,-0.0873,-0.0873,-0.087,-0.0847,-0.0873,-0.0883,-0.0882,-0.0938,-0.0857,-0.0853,-0.0559,-0.048,-0.0408,-0.0482,-0.0495,-0.0511,-0.0528,-0.0503,-0.0465,-0.0311,-0.0311,-0.0312,-0.0312,-0.0312,0,-0.0824,-0.0805,-0.0783,-0.0758,-0.0732,-0.0771,-0.0769,-0.0734,-0.0705,-0.0669,-0.0647,-0.0569,-0.0467,-0.0418,-0.0276,-0.0238,-0.0307,-0.0218,-0.0351,-0.0377,-0.04,-0.0375,-0.0145,-0.0144,-0.0143,-0.0142,0,0,-0.0762,-0.0707,-0.0701,-0.0627,-0.0615,-0.0556,-0.0539,-0.05,-0.0435,-0.0356,-0.0297,-0.033,-0.0356,-0.0228,-0.022,-0.0139,-0.0236,-0.0112,-0.0252,-0.0429,-0.045,-0.0571,-0.056,0,0,0,0,0]},{"header":{"parameterUnit":"m.s-1","parameterCategory":2,"la1":30.2991,"la2":30.254,"lo1":-89.0895,"lo2":-89.0444,"dy":0.0017,"dx":0.0017,"nx":28,"ny":28,"refTime":"2025-07-12T21:00:00:Z","depth":"2","parameterNumber":3,"parameterNumberName":"V-component_of_CURRENTS"},"data":[0,0,0,0,0,0,0,0,0,0,0,0,0,0,0,0,0,0,0,0,0,0,0,0,0,0,0,0,0,0,0,0,0,0,0,0,0,0,0,0,0,0,0,0,0,0,0,0,0,0,0,0,0,0,0,0,0,0,-0.064,-0.064,0,-0.0616,-0.0616,-0.0615,-0.0587,-0.0587,-0.0587,-0.0586,-0.0452,-0.0449,-0.0446,0,0,0,0,0,0,0,0,0,0,0,0,0,-0.066,-0.066,-0.064,-0.064,-0.064,-0.0616,-0.0616,-0.0615,-0.0588,-0.0587,-0.0587,-0.0586,-0.0453,-0.045,-0.0446,0,0,0,0,0,0,0,0,0,0,0,0,0,-0.0645,-0.066,-0.064,-0.0623,-0.0622,-0.0616,-0.0616,-0.0615,-0.0588,-0.0587,-0.0586,-0.0586,-0.0455,-0.045,-0.0445,-0.0426,0,0,-0.043,-0.0428,0,0,0,0,0,0,0,0,-0.0646,-0.0644,-0.0626,-0.0625,-0.0623,-0.0605,-0.0574,-0.0547,-0.0588,-0.06,-0.0586,-0.0586,-0.0494,-0.0486,-0.0483,-0.042,-0.0414,-0.043,-0.0427,-0.0425,-0.0424,0,0,0,0,0,0,0,-0.0647,-0.0645,-0.063,-0.0626,-0.0624,-0.0616,-0.0614,-0.0569,-0.0548,-0.0599,-0.0597,-0.0595,-0.0492,-0.0488,-0.048,-0.0412,-0.043,-0.0426,-0.0423,-0.0421,-0.0282,-0.0282,0,0,0,0,0,0,-0.0652,-0.0646,-0.0631,-0.0629,-0.0634,-0.0617,-0.0613,-0.061,-0.0551,-0.0542,-0.0596,-0.0594,-0.0497,-0.0485,-0.0475,-0.0423,-0.0425,-0.042,-0.0418,-0.0283,-0.0282,-0.0281,0,0,0,0,0,0,-0.0652,-0.0651,-0.0632,-0.0638,-0.0635,-0.0617,-0.0614,-0.061,-0.0602,-0.055,-0.0539,-0.059,-0.0496,-0.0481,-0.0429,-0.0418,-0.0418,-0.0414,-0.0284,-0.0283,-0.0282,-0.0335,0,0,0,0,0,0,-0.0653,-0.0651,-0.0655,-0.0638,-0.0635,-0.0618,-0.0614,-0.061,-0.0602,-0.0599,-0.0541,-0.0529,-0.0494,-0.0436,-0.0424,-0.0411,-0.041,-0.0285,-0.0284,-0.0282,-0.0334,-0.0335,-0.0337,0,0,0,0,0,-0.0654,-0.065,-0.0655,-0.0653,-0.0639,-0.0618,-0.0615,-0.0601,-0.0602,-0.0592,-0.0557,-0.053,-0.0418,-0.0432,-0.0418,-0.0403,-0.0286,-0.0284,-0.0282,-0.0333,-0.0335,-0.0337,0,0,0,0,0,0,-0.0654,-0.0647,-0.0651,-0.0645,-0.0632,-0.0613,-0.0606,-0.0602,-0.0571,-0.0567,-0.0522,-0.0507,-0.0461,-0.042,-0.0437,-0.0357,-0.0346,-0.0342,-0.039,-0.0391,-0.0392,-0.0396,-0.0406,0,0,0,0,0,-0.066,-0.0659,-0.0647,-0.0643,-0.0637,-0.0626,-0.0619,-0.0609,-0.0581,-0.0569,-0.0533,-0.0487,-0.0444,-0.0409,-0.0369,-0.0321,-0.0286,-0.0299,-0.0301,-0.0303,-0.0294,-0.0254,-0.0252,-0.0276,-0.0276,-0.0276,0,0,-0.0661,-0.0656,-0.0657,-0.0644,-0.0636,-0.0623,-0.0619,-0.0605,-0.0591,-0.0556,-0.0524,-0.0495,-0.0435,-0.039,-0.0363,-0.0351,-0.0274,-0.03,-0.0303,-0.0293,-0.0252,-0.025,-0.0248,-0.0275,-0.0275,-0.0275,0,0,-0.0657,-0.0657,-0.0654,-0.0643,-0.0631,-0.0621,-0.0617,-0.06,-0.0587,-0.0554,-0.0532,-0.0496,-0.0426,-0.0388,-0.0357,-0.0336,-0.0293,-0.032,-0.0318,-0.028,-0.0278,-0.0276,-0.0223,-0.0216,-0.031,-0.031,-0.031,0,-0.0663,-0.0658,-0.0649,-0.0639,-0.0634,-0.062,-0.0613,-0.0593,-0.0562,-0.055,-0.0543,-0.0465,-0.0423,-0.0367,-0.0362,-0.034,-0.0308,-0.0322,-0.0284,-0.0281,-0.0278,-0.0224,-0.0216,-0.0312,-0.0312,-0.0312,-0.0311,0,-0.0653,-0.0652,-0.0645,-0.0635,-0.0623,-0.0612,-0.059,-0.0575,-0.0564,-0.0547,-0.0504,-0.0458,-0.0411,-0.0393,-0.0368,-0.0324,-0.0304,-0.0304,-0.0287,-0.0279,-0.0222,-0.0213,-0.0315,-0.0315,-0.0314,-0.0313,0,0,-0.0666,-0.0647,-0.0647,-0.0649,-0.0624,-0.0616,-0.0588,-0.0564,-0.0552,-0.0517,-0.0494,-0.0433,-0.0424,-0.0387,-0.0359,-0.0319,-0.0275,-0.0302,-0.0299,-0.0262,-0.0177,-0.0175,-0.0164,-0.0275,-0.0273,-0.0272,-0.0145,0,-0.0669,-0.0665,-0.0646,-0.0641,-0.0641,-0.0616,-0.0596,-0.0569,-0.0541,-0.0512,-0.0464,-0.0429,-0.0415,-0.0398,-0.0359,-0.0298,-0.0252,-0.0308,-0.0178,-0.0173,-0.0184,-0.0154,-0.0197,-0.0088,-0.0135,-0.0133,-0.0132,0,-0.0672,-0.0672,-0.0676,-0.0663,-0.066,-0.065,-0.0627,-0.0605,-0.0552,-0.0529,-0.0485,-0.0447,-0.0381,-0.0379,-0.0262,-0.03,-0.024,-0.0191,-0.0186,-0.0158,-0.0154,-0.0102,-0.0068,-0.0115,-0.0117,-0.0118,-0.0119,0,-0.0709,-0.0693,-0.0705,-0.07,-0.0679,-0.0674,-0.066,-0.0618,-0.0604,-0.0541,-0.0517,-0.044,-0.0389,-0.0318,-0.0214,-0.0237,-0.0081,-0.0101,-0.0035,-0.0034,-0.0029,-0.003,-0.0016,-0.0016,-0.0016,-0.0016,-0.0017,0,-0.0733,-0.0738,-0.0727,-0.0735,-0.0744,-0.0714,-0.0714,-0.0681,-0.064,-0.0616,-0.0538,-0.0484,-0.0372,-0.0271,-0.02,-0.0076,-0.0065,-0.002,0.0,-0.0047,-0.0051,-0.0045,-0.0051,-0.0012,-0.0013,-0.0014,-0.0014,0,-0.0775,-0.0768,-0.078,-0.0769,-0.0767,-0.0778,-0.0762,-0.0754,-0.0704,-0.0665,-0.0644,-0.0503,-0.0356,-0.0237,-0.0085,-0.0045,0.0061,0.0102,0.0048,0.0059,0.0079,0.007,0.0182,0.0183,0.0184,0.0185,0.0186,0,-0.0796,-0.081,-0.0818,-0.0829,-0.0827,-0.0836,-0.0838,-0.08,-0.0784,-0.0671,-0.0647,-0.0481,-0.0356,-0.0122,0.0003,0.0148,0.0133,0.0163,0.0102,0.0092,0.0101,0.009,0.008,0.0099,0.0099,0.0099,0.0099,0,-0.0834,-0.0841,-0.0854,-0.0877,-0.0889,-0.0897,-0.089,-0.0886,-0.0824,-0.0771,-0.0633,-0.0517,-0.0267,-0.0083,0.0098,0.0145,0.0128,0.0165,0.019,0.0041,0.002,0.0026,0.0018,0.0099,0.0099,0.0099,0.0099,0.0099,-0.086,-0.0879,-0.0894,-0.0916,-0.093,-0.0928,-0.0928,-0.0891,-0.085,-0.0715,-0.062,-0.0404,-0.0269,0.0034,0.0128,0.0206,0.0189,0.0162,0.016,0.0159,0.0111,0.0091,0.0176,0.0177,0.0177,0.0178,0.0178,0,-0.0887,-0.0899,-0.0921,-0.0941,-0.0957,-0.0954,-0.0937,-0.0904,-0.0831,-0.0666,-0.052,-0.0323,-0.0131,0.0035,0.0178,0.022,0.0189,0.0194,0.0149,0.0147,0.0146,0.0097,0.0159,0.016,0.0161,0.0162,0,0,-0.0898,-0.0924,-0.0932,-0.0954,-0.0965,-0.0965,-0.0948,-0.0868,-0.0747,-0.0554,-0.0377,-0.0209,-0.0058,0.0034,0.0074,0.0153,0.0128,0.0129,0.0125,0.0059,0.0059,0.0096,0.0014,0,0,0,0,0]}],[{"header":{"parameterUnit":"m.s-1","parameterCategory":2,"la1":30.2991,"la2":30.254,"lo1":-89.0895,"lo2":-89.0444,"dy":0.0017,"dx":0.0017,"nx":28,"ny":28,"refTime":"2025-07-12T21:00:00:Z","depth":"4","parameterNumber":2,"parameterNumberName":"U-component_of_CURRENTS"},"data":[0,0,0,0,0,0,0,0,0,0,0,0,0,0,0,0,0,0,0,0,0,0,0,0,0,0,0,0,0,0,0,0,0,0,0,0,0,0,0,0,0,0,0,0,0,0,0,0,0,0,0,0,0,0,0,0,0,0,-0.0763,-0.0763,0,-0.0776,-0.0776,-0.0777,-0.0805,-0.0805,-0.0806,-0.0806,-0.0836,-0.0837,-0.0837,0,0,0,0,0,0,0,0,0,0,0,0,0,-0.075,-0.075,-0.0763,-0.0763,-0.0763,-0.0776,-0.0776,-0.0777,-0.0805,-0.0805,-0.0806,-0.0807,-0.0836,-0.0837,-0.0837,0,0,0,0,0,0,0,0,0,0,0,0,0,-0.0758,-0.075,-0.0763,-0.0779,-0.0781,-0.0776,-0.0776,-0.0777,-0.0804,-0.0805,-0.0806,-0.0807,-0.0836,-0.0836,-0.0837,-0.0821,0,0,-0.0838,-0.0838,0,0,0,0,0,0,0,0,-0.0758,-0.0759,-0.0776,-0.0778,-0.078,-0.079,-0.0783,-0.0793,-0.0804,-0.0795,-0.0806,-0.0807,-0.0822,-0.0823,-0.0823,-0.0823,-0.0824,-0.0838,-0.0838,-0.0838,-0.0838,0,0,0,0,0,0,0,-0.0757,-0.0758,-0.0768,-0.0776,-0.0778,-0.0782,-0.0784,-0.0785,-0.0803,-0.0796,-0.0798,-0.08,-0.0823,-0.0823,-0.0824,-0.0824,-0.0838,-0.0838,-0.0839,-0.0839,-0.0858,-0.0858,0,0,0,0,0,0,-0.0756,-0.0757,-0.0767,-0.0768,-0.0771,-0.0781,-0.0784,-0.0785,-0.0803,-0.0806,-0.0799,-0.0801,-0.0822,-0.0824,-0.0825,-0.0865,-0.0838,-0.0839,-0.0839,-0.0858,-0.0858,-0.0858,0,0,0,0,0,0,-0.0755,-0.0756,-0.0767,-0.0764,-0.0765,-0.0781,-0.0782,-0.0785,-0.0801,-0.0805,-0.0809,-0.0813,-0.0823,-0.0825,-0.084,-0.0865,-0.0839,-0.0839,-0.0857,-0.0858,-0.0858,-0.0908,0,0,0,0,0,0,-0.0755,-0.0756,-0.0763,-0.0763,-0.0765,-0.0779,-0.0782,-0.0785,-0.08,-0.0803,-0.0818,-0.0821,-0.0823,-0.0839,-0.084,-0.0865,-0.0839,-0.0857,-0.0858,-0.0858,-0.0906,-0.091,-0.0914,0,0,0,0,0,-0.0754,-0.0761,-0.0763,-0.0765,-0.0772,-0.078,-0.0781,-0.0795,-0.08,-0.0811,-0.0819,-0.0821,-0.0844,-0.084,-0.0841,-0.0866,-0.0857,-0.0857,-0.0858,-0.0904,-0.0909,-0.0914,0,0,0,0,0,0,-0.076,-0.0764,-0.0767,-0.0775,-0.0783,-0.0785,-0.0796,-0.08,-0.0814,-0.082,-0.0823,-0.0827,-0.085,-0.0844,-0.0839,-0.0871,-0.0851,-0.0852,-0.0886,-0.0891,-0.0894,-0.0899,-0.084,0,0,0,0,0,-0.0763,-0.077,-0.0773,-0.0781,-0.0786,-0.0791,-0.0797,-0.0805,-0.0813,-0.0821,-0.083,-0.0838,-0.0849,-0.0859,-0.0864,-0.0879,-0.0858,-0.0894,-0.0898,-0.0902,-0.0904,-0.0893,-0.0896,-0.0861,-0.0861,-0.0861,0,0,-0.0766,-0.077,-0.0774,-0.0783,-0.0789,-0.0807,-0.0798,-0.0812,-0.0833,-0.0821,-0.0852,-0.0852,-0.0855,-0.0877,-0.0886,-0.0878,-0.0899,-0.0902,-0.0906,-0.0906,-0.0894,-0.0898,-0.0901,-0.0861,-0.0861,-0.0861,0,0,-0.0779,-0.0781,-0.0794,-0.0804,-0.0817,-0.0822,-0.0829,-0.0838,-0.0851,-0.0871,-0.0871,-0.0884,-0.0899,-0.0909,-0.0915,-0.0938,-0.0918,-0.0941,-0.0969,-0.0959,-0.0962,-0.0964,-0.0934,-0.0933,-0.0945,-0.0945,-0.0945,0,-0.0784,-0.0801,-0.0799,-0.0819,-0.0833,-0.0833,-0.0855,-0.0867,-0.0882,-0.0889,-0.0891,-0.0909,-0.0917,-0.0941,-0.0956,-0.095,-0.0929,-0.0955,-0.0965,-0.0967,-0.0968,-0.0937,-0.0935,-0.0947,-0.0947,-0.0947,-0.0947,0,-0.0805,-0.0827,-0.0836,-0.0862,-0.0876,-0.0894,-0.0909,-0.0924,-0.0935,-0.0941,-0.0963,-0.0965,-0.0973,-0.0983,-0.0983,-0.1001,-0.0977,-0.097,-0.0956,-0.0975,-0.094,-0.0938,-0.0951,-0.095,-0.0949,-0.0949,0,0,-0.0798,-0.0842,-0.0849,-0.0869,-0.0902,-0.0911,-0.0947,-0.0969,-0.0983,-0.1,-0.1014,-0.1042,-0.103,-0.1034,-0.103,-0.1031,-0.1029,-0.1011,-0.1009,-0.0986,-0.0989,-0.09,-0.0888,-0.1024,-0.1025,-0.1025,-0.0957,0,-0.0818,-0.086,-0.0881,-0.0926,-0.0946,-0.0964,-0.0993,-0.1013,-0.1025,-0.1036,-0.1041,-0.1052,-0.1054,-0.1054,-0.1058,-0.1033,-0.1027,-0.1047,-0.097,-0.0967,-0.0889,-0.0884,-0.1025,-0.0955,-0.0954,-0.0954,-0.0954,0,-0.0835,-0.0861,-0.0908,-0.0951,-0.0961,-0.0988,-0.102,-0.1046,-0.1064,-0.107,-0.108,-0.1073,-0.108,-0.1073,-0.1047,-0.1058,-0.103,-0.1011,-0.1007,-0.0906,-0.0874,-0.0932,-0.0949,-0.0949,-0.095,-0.095,-0.095,0,-0.0823,-0.0879,-0.0916,-0.0933,-0.0982,-0.1003,-0.1027,-0.1054,-0.1066,-0.1085,-0.1084,-0.1088,-0.1076,-0.1059,-0.1018,-0.1034,-0.097,-0.0982,-0.0874,-0.0866,-0.0947,-0.0945,-0.0961,-0.0961,-0.0961,-0.0961,-0.0961,0,-0.0829,-0.086,-0.0912,-0.0931,-0.0958,-0.0999,-0.1025,-0.1046,-0.107,-0.1066,-0.1094,-0.1077,-0.1073,-0.1034,-0.101,-0.0917,-0.0957,-0.0869,-0.0843,-0.0967,-0.0968,-0.0944,-0.0943,-0.0959,-0.0959,-0.096,-0.096,0,-0.0806,-0.0851,-0.0884,-0.0937,-0.0954,-0.0968,-0.1012,-0.1019,-0.1058,-0.1051,-0.1054,-0.1058,-0.1005,-0.0978,-0.0928,-0.0882,-0.0821,-0.078,-0.0893,-0.0875,-0.073,-0.0732,-0.0658,-0.0654,-0.0651,-0.0648,-0.0646,0,-0.0794,-0.0813,-0.0867,-0.0876,-0.09,-0.0932,-0.0944,-0.0998,-0.0999,-0.1022,-0.1,-0.0973,-0.0957,-0.0807,-0.0805,-0.0727,-0.072,-0.0678,-0.0732,-0.0717,-0.0699,-0.0706,-0.0713,-0.0641,-0.064,-0.0639,-0.0639,0,-0.0756,-0.078,-0.0799,-0.0819,-0.0836,-0.0855,-0.0878,-0.0875,-0.0919,-0.0964,-0.0906,-0.0862,-0.0792,-0.0741,-0.0671,-0.063,-0.0704,-0.0646,-0.0653,-0.0703,-0.0696,-0.0683,-0.0693,-0.0628,-0.0629,-0.063,-0.0631,0,-0.071,-0.0703,-0.0729,-0.0736,-0.076,-0.0757,-0.0788,-0.0779,-0.0793,-0.0825,-0.0797,-0.0774,-0.0778,-0.0688,-0.0631,-0.0569,-0.057,-0.055,-0.0563,-0.0575,-0.0577,-0.0557,-0.0414,0,0,0,0,0,-0.0653,-0.0636,-0.0641,-0.0643,-0.0667,-0.0682,-0.0726,-0.0761,-0.0807,-0.0735,-0.0766,-0.0699,-0.0615,-0.061,-0.0525,-0.0591,-0.0573,-0.049,-0.0559,-0.0567,-0.058,-0.059,0,0,0,0,0,0,-0.0609,-0.061,-0.061,-0.0567,-0.0552,-0.0569,-0.0596,-0.0634,-0.0606,-0.0652,-0.0611,-0.0635,-0.0568,-0.0636,-0.0502,-0.0495,-0.0518,-0.048,-0.0477,-0.056,-0.0571,-0.0582,-0.0596,0,0,0,0,0]},{"header":{"parameterUnit":"m.s-1","parameterCategory":2,"la1":30.2991,"la2":30.254,"lo1":-89.0895,"lo2":-89.0444,"dy":0.0017,"dx":0.0017,"nx":28,"ny":28,"refTime":"2025-07-12T21:00:00:Z","depth":"4","parameterNumber":3,"parameterNumberName":"V-component_of_CURRENTS"},"data":[0,0,0,0,0,0,0,0,0,0,0,0,0,0,0,0,0,0,0,0,0,0,0,0,0,0,0,0,0,0,0,0,0,0,0,0,0,0,0,0,0,0,0,0,0,0,0,0,0,0,0,0,0,0,0,0,0,0,-0.0429,-0.0429,0,-0.0424,-0.0424,-0.0424,-0.0427,-0.0427,-0.0427,-0.0427,-0.0426,-0.0426,-0.0426,0,0,0,0,0,0,0,0,0,0,0,0,0,-0.0424,-0.0424,-0.0429,-0.0429,-0.0429,-0.0424,-0.0424,-0.0424,-0.0427,-0.0427,-0.0427,-0.0427,-0.0426,-0.0426,-0.0426,0,0,0,0,0,0,0,0,0,0,0,0,0,-0.0423,-0.0424,-0.0429,-0.0429,-0.0429,-0.0424,-0.0424,-0.0424,-0.0427,-0.0427,-0.0427,-0.0427,-0.0426,-0.0426,-0.0426,-0.0422,0,0,-0.0426,-0.0426,0,0,0,0,0,0,0,0,-0.0423,-0.0424,-0.0429,-0.0429,-0.0429,-0.0426,-0.0422,-0.0424,-0.0427,-0.0428,-0.0427,-0.0427,-0.0426,-0.0426,-0.0425,-0.0422,-0.0422,-0.0426,-0.0426,-0.0425,-0.0425,0,0,0,0,0,0,0,-0.0423,-0.0424,-0.0427,-0.0429,-0.0429,-0.0424,-0.0424,-0.0422,-0.0427,-0.0428,-0.0428,-0.0427,-0.0426,-0.0425,-0.0425,-0.0422,-0.0426,-0.0425,-0.0425,-0.0425,-0.0425,-0.0425,0,0,0,0,0,0,-0.0424,-0.0424,-0.0427,-0.0427,-0.0426,-0.0424,-0.0424,-0.0427,-0.0427,-0.0426,-0.0427,-0.0427,-0.0426,-0.0425,-0.0425,-0.0413,-0.0425,-0.0425,-0.0425,-0.0425,-0.0425,-0.0425,0,0,0,0,0,0,-0.0424,-0.0425,-0.0428,-0.0425,-0.0425,-0.0424,-0.0427,-0.0427,-0.0433,-0.0426,-0.0426,-0.0433,-0.0426,-0.0426,-0.0435,-0.0413,-0.0425,-0.0425,-0.0425,-0.0425,-0.0425,-0.0392,0,0,0,0,0,0,-0.0424,-0.0425,-0.0433,-0.0425,-0.0425,-0.0429,-0.0427,-0.0427,-0.0431,-0.0432,-0.0431,-0.0431,-0.0426,-0.0435,-0.0435,-0.0413,-0.0425,-0.0425,-0.0425,-0.0425,-0.0393,-0.0391,-0.039,0,0,0,0,0,-0.0424,-0.0431,-0.0433,-0.0434,-0.0434,-0.043,-0.0429,-0.0429,-0.0431,-0.0435,-0.0439,-0.0431,-0.0435,-0.0435,-0.0435,-0.0412,-0.0425,-0.0425,-0.0425,-0.0394,-0.0392,-0.039,0,0,0,0,0,0,-0.0432,-0.0431,-0.0434,-0.0441,-0.0439,-0.043,-0.0434,-0.0434,-0.0439,-0.0443,-0.0438,-0.0438,-0.0434,-0.0438,-0.0438,-0.0415,-0.0426,-0.0426,-0.0403,-0.0401,-0.0399,-0.0387,-0.0425,0,0,0,0,0,-0.0438,-0.0445,-0.044,-0.0446,-0.0446,-0.0442,-0.0443,-0.0442,-0.0442,-0.0445,-0.0444,-0.0443,-0.0433,-0.043,-0.0429,-0.0421,-0.0412,-0.0407,-0.0405,-0.0403,-0.0395,-0.0363,-0.0357,-0.0426,-0.0426,-0.0426,0,0,-0.0445,-0.0444,-0.0449,-0.0449,-0.0448,-0.0442,-0.0443,-0.0445,-0.0437,-0.0444,-0.0442,-0.0441,-0.0433,-0.042,-0.0418,-0.042,-0.0382,-0.0403,-0.0402,-0.0394,-0.0362,-0.0355,-0.0349,-0.0426,-0.0426,-0.0426,0,0,-0.0452,-0.0458,-0.0464,-0.046,-0.0458,-0.0451,-0.0453,-0.0449,-0.0446,-0.0447,-0.0441,-0.0428,-0.0431,-0.0405,-0.0394,-0.0384,-0.0376,-0.039,-0.0364,-0.0333,-0.0326,-0.032,-0.0308,-0.0301,-0.0385,-0.0385,-0.0385,0,-0.0463,-0.0465,-0.0465,-0.0462,-0.0458,-0.0454,-0.0451,-0.0443,-0.0443,-0.0434,-0.0447,-0.0421,-0.0413,-0.0372,-0.0366,-0.0373,-0.037,-0.0368,-0.0328,-0.0322,-0.0316,-0.0304,-0.0297,-0.0383,-0.0383,-0.0383,-0.0384,0,-0.0466,-0.0469,-0.047,-0.0465,-0.0459,-0.0458,-0.0441,-0.0437,-0.0435,-0.0422,-0.0399,-0.0387,-0.0369,-0.0358,-0.0357,-0.0309,-0.0325,-0.033,-0.0327,-0.0307,-0.0297,-0.029,-0.0381,-0.0381,-0.0382,-0.0382,0,0,-0.0489,-0.0477,-0.0479,-0.0479,-0.0461,-0.046,-0.0435,-0.0414,-0.0403,-0.0388,-0.0367,-0.033,-0.0325,-0.0313,-0.0302,-0.0268,-0.0223,-0.0284,-0.0283,-0.0261,-0.0172,-0.0176,-0.0169,-0.0224,-0.0223,-0.0222,-0.0184,0,-0.0496,-0.0498,-0.0481,-0.0479,-0.0479,-0.0456,-0.0437,-0.0414,-0.0397,-0.0378,-0.0335,-0.0322,-0.0306,-0.0304,-0.026,-0.0241,-0.0203,-0.0234,-0.0205,-0.0204,-0.02,-0.016,-0.0217,-0.0178,-0.0177,-0.0176,-0.0175,0,-0.0505,-0.0505,-0.0509,-0.0493,-0.0491,-0.0486,-0.0459,-0.0441,-0.0394,-0.0381,-0.0338,-0.032,-0.0261,-0.0264,-0.0185,-0.0212,-0.0185,-0.0165,-0.0163,-0.017,-0.0194,-0.0203,-0.0162,-0.0163,-0.0164,-0.0165,-0.0166,0,-0.0535,-0.0524,-0.0533,-0.0528,-0.0508,-0.0503,-0.049,-0.0449,-0.0441,-0.0388,-0.0383,-0.0307,-0.029,-0.0229,-0.0176,-0.0186,-0.0102,-0.0111,-0.0082,-0.0084,-0.0107,-0.0114,-0.0045,-0.0045,-0.0045,-0.0045,-0.0045,0,-0.0549,-0.0557,-0.0555,-0.0563,-0.0574,-0.0542,-0.0546,-0.0515,-0.048,-0.0469,-0.0399,-0.0377,-0.0282,-0.0224,-0.0172,-0.0103,-0.0093,-0.0064,-0.0063,-0.0098,-0.0104,-0.0103,-0.011,-0.0044,-0.0044,-0.0044,-0.0045,0,-0.0582,-0.058,-0.0596,-0.0591,-0.0595,-0.0607,-0.0602,-0.0597,-0.0557,-0.0539,-0.0527,-0.0434,-0.0347,-0.0251,-0.0153,-0.011,-0.004,-0.0019,-0.0066,-0.0072,-0.0047,-0.0053,0.0019,0.0019,0.002,0.002,0.002,0,-0.0596,-0.0611,-0.0637,-0.0656,-0.066,-0.0675,-0.0682,-0.0648,-0.0637,-0.0576,-0.0566,-0.0475,-0.0405,-0.025,-0.0161,-0.0038,-0.0025,0.0003,-0.0004,-0.0028,-0.0035,-0.0042,-0.0048,0.0021,0.0021,0.0021,0.0021,0,-0.0623,-0.0643,-0.0661,-0.0702,-0.0727,-0.0743,-0.0745,-0.074,-0.0689,-0.0673,-0.0577,-0.048,-0.0376,-0.0245,-0.0143,-0.0064,-0.0017,0.0007,0.0007,-0.0,-0.0025,-0.0034,-0.0041,0.0022,0.0022,0.0022,0.0022,0,-0.0649,-0.0673,-0.0704,-0.0735,-0.0771,-0.0775,-0.0777,-0.0738,-0.0716,-0.0633,-0.0613,-0.0481,-0.0406,-0.0261,-0.0176,-0.0081,-0.0066,-0.005,-0.0047,-0.0048,-0.0076,-0.0118,-0.0084,0,0,0,0,0,-0.0667,-0.0691,-0.0724,-0.0755,-0.079,-0.0802,-0.0795,-0.0782,-0.0747,-0.0677,-0.0632,-0.0524,-0.0361,-0.0292,-0.0194,-0.0191,-0.0069,-0.0079,-0.0054,0.0029,0.0028,0.0006,0,0,0,0,0,0,-0.0679,-0.0718,-0.0724,-0.0759,-0.0782,-0.0808,-0.0799,-0.0775,-0.0717,-0.0671,-0.0571,-0.0528,-0.0362,-0.0416,-0.0201,-0.0176,-0.0153,-0.0004,-0.0002,0.003,0.0029,0.0028,0.0005,0,0,0,0,0]}]]